Regional Weather Roundup
Issued by NWS

Home | Current Version | Previous Version | Text Only | Print | Product List | Glossary On
Versions: 1 2 3 4 5 6 7 8 9 10 11 12 13 14 15 16 17 18 19 20 21 22 23 24 25 26 27
000
ASUS45 KCYS 031310
RWRWY

WYOMING REGIONAL WEATHER ROUNDUP
NATIONAL WEATHER SERVICE CHEYENNE WY
600 AM MST SAT DEC 03 2016

NOTE:  "FAIR" INDICATES FEW OR NO CLOUDS BELOW 12,000 FEET
WITH NO SIGNIFICANT WEATHER AND/OR OBSTRUCTIONS TO VISIBILITY.

WYZ001-031400-
YELLOWSTONE NATIONAL PARK

CITY           SKY/WX    TMP DP  RH WIND       PRES   REMARKS
LK YELLOWSTONE   N/A     13   9  84 VRB5      30.03S WCI   5
W YELLOWSTONE  NOT AVBL

$$
WYZ002>013-054>058-071-098>099-031400-
NORTHERN WYOMING

CITY           SKY/WX    TMP DP  RH WIND       PRES   REMARKS
JACKSON        MOCLDY    19  16  86 SW6       30.10R WCI  11
CODY           FAIR      30  11  45 W18G25    29.92R WCI  18
GREYBULL       CLOUDY    24  18  77 CALM      29.95S
WORLAND        MOCLDY    20  17  88 CALM      29.94S
SHERIDAN       CLOUDY    22  15  75 CALM      29.87F
BUFFALO        CLOUDY    29   6  38 SW8       29.86S WCI  21
GILLETTE       FAIR      22  12  65 SW12      29.86R WCI  10
HULETT         FAIR      27  16  63 S14G21    29.88R WCI  15
NEWCASTLE      FAIR      23  18  80 SE8       29.93S WCI  14

$$
WYZ014>020-022>026-101>103-031400-
CENTRAL WYOMING

CITY           SKY/WX    TMP DP  RH WIND       PRES   REMARKS
BIG PINEY      FAIR       3   0  87 NW3       30.08S
PINEDALE       PTSUNNY    9   5  85 NW7       30.08R WCI  -3
DUBOIS         FAIR      18   7  62 NW33      29.94R WCI  -3
LANDER         FAIR      21   5  50 SW9       29.92S WCI  11
RIVERTON       FAIR      24   7  48 SW15      29.92F WCI  11
CASPER         CLOUDY    22  11  62 SW21G33   29.93F WCI   6
DOUGLAS        FAIR      25  11  55 W13       29.92F WCI  14

$$
WYZ021-027>030-104>119-031400-
SOUTHERN WYOMING

CITY           SKY/WX    TMP DP  RH WIND       PRES   REMARKS
EVANSTON       FAIR      13   7  77 SW14      30.12F WCI  -2
FORT BRIDGER   PTSUNNY   19   9  64 W12       30.12S WCI   6
ROCK SPRINGS   FAIR      15   7  70 SW21      30.08S WCI  -2
DIXON          PTSUNNY    7   4  86 NE5       30.17R WCI  -2
RAWLINS        CLOUDY    18   9  68 SW22G31   30.01F WCI   1
SARATOGA       CLOUDY    10   7  85 SE9       30.06S WCI  -2
LARAMIE        FAIR      13   4  67 SW20G30   29.95S WCI  -5
CHEYENNE       FAIR      18   6  59 W16       29.96F WCI   3
TORRINGTON     FAIR      17  10  74 S6        29.99F WCI   9
PINE BLUFFS    FAIR      12  10  92 CALM      30.02S

$$




USA.gov is the U.S. government's official web portal to all federal, state and local government web resources and services.